This is the latest recevied weather packets stored in our database for station/object DG1JLA-3. If no packets are shown the sender has not sent any weather packets the latest 10 day(s).
| Time | Temp. | Humidity | Pressure | Rain* | Wind** | Luminosity | Snow |
|---|---|---|---|---|---|---|---|
| 1777623306 | 15° C | 54% | 1033.5 hPa | 0 mm | - | - | - |
| 1777623006 | 14.44° C | 54% | 1033.5 hPa | 0 mm | - | - | - |
| 1777622706 | 14.44° C | 55% | 1033.5 hPa | 0 mm | - | - | - |
| 1777622406 | 14.44° C | 56% | 1033.6 hPa | 0 mm | - | - | - |
| 1777622106 | 13.89° C | 57% | 1033.5 hPa | 0 mm | - | - | - |
| 1777621806 | 13.89° C | 58% | 1033.5 hPa | 0 mm | - | - | - |
| 1777621506 | 13.89° C | 59% | 1033.5 hPa | 0 mm | - | - | - |
| 1777621206 | 13.33° C | 61% | 1033.4 hPa | 0 mm | - | - | - |
| 1777620906 | 13.89° C | 61% | 1033.4 hPa | 0 mm | - | - | - |
| 1777620606 | 13.89° C | 61% | 1033.5 hPa | 0 mm | - | - | - |
| 1777620306 | 13.33° C | 61% | 1033.5 hPa | 0 mm | - | - | - |
| 1777620006 | 12.78° C | 64% | 1033.4 hPa | 0 mm | - | - | - |
| 1777619706 | 12.22° C | 64% | 1033.5 hPa | 0 mm | - | - | - |
| 1777619406 | 12.78° C | 65% | 1033.5 hPa | 0 mm | - | - | - |
| 1777619106 | 12.22° C | 65% | 1033.6 hPa | 0 mm | - | - | - |
| 1777618806 | 12.22° C | 66% | 1033.6 hPa | 0 mm | - | - | - |
| 1777618506 | 11.67° C | 67% | 1033.6 hPa | 0 mm | - | - | - |
| 1777618206 | 11.67° C | 67% | 1033.6 hPa | 0 mm | - | - | - |
| 1777617906 | 11.11° C | 66% | 1033.6 hPa | 0 mm | - | - | - |
| 1777617606 | 10.56° C | 67% | 1033.7 hPa | 0 mm | - | - | - |
| 1777617306 | 10.56° C | 68% | 1033.7 hPa | 0 mm | - | - | - |
| 1777617006 | 10° C | 69% | 1033.7 hPa | 0 mm | - | - | - |
| 1777616706 | 10° C | 66% | 1033.7 hPa | 0 mm | - | - | - |
| 1777616406 | 8.89° C | 68% | 1033.6 hPa | 0 mm | - | - | - |
| 1777616106 | 8.33° C | 68% | 1033.7 hPa | 0 mm | - | - | - |
* Rain latest hour (hover to see other rain measurements)
** Current wind speed in m/s (hover to see current wind gust speed)